Time,TemperatureF,DewpointF,PressureIn,WindDirection,WindDirectionDegrees,WindSpeedMPH,WindSpeedGustMPH,Humidity,HourlyPrecipIn,Conditions,Clouds,dailyrainin,SoftwareType,DateUTC
2013-10-27 00:00:00,51.9,32.3,29.95,SW,232,2.0,11.0,47,0.00,,---,0.00,VWS V14.01,2013-10-27 04:00:00,
2013-10-27 00:01:00,51.9,32.8,29.94,West,267,4.0,5.0,48,0.00,,---,0.00,VWS V14.01,2013-10-27 04:01:00,
2013-10-27 00:05:00,51.7,32.7,29.94,WSW,252,3.0,5.0,48,0.00,,---,0.00,VWS V14.01,2013-10-27 04:05:00,
2013-10-27 00:06:00,51.7,33.7,29.94,West,281,6.0,6.0,50,0.00,,---,0.00,VWS V14.01,2013-10-27 04:06:00,
2013-10-27 00:10:00,51.4,32.4,29.94,West,267,7.0,10.0,48,0.00,,---,0.00,VWS V14.01,2013-10-27 04:10:00,
2013-10-27 00:11:00,51.4,32.4,29.94,WSW,257,4.0,11.0,48,0.00,,---,0.00,VWS V14.01,2013-10-27 04:11:00,
2013-10-27 00:15:00,51.3,32.3,29.94,West,281,6.0,11.0,48,0.00,,---,0.00,VWS V14.01,2013-10-27 04:15:00,
2013-10-27 00:16:00,51.3,32.3,29.95,SW,233,5.0,13.0,48,0.00,,---,0.00,VWS V14.01,2013-10-27 04:16:00,
2013-10-27 00:20:00,51.1,32.6,29.95,WNW,286,4.0,13.0,49,0.00,,---,0.00,VWS V14.01,2013-10-27 04:20:00,
2013-10-27 00:21:00,51.1,32.1,29.94,West,269,4.0,10.0,48,0.00,,---,0.00,VWS V14.01,2013-10-27 04:21:00,
2013-10-27 00:25:00,51.0,32.5,29.94,WSW,252,5.0,10.0,49,0.00,,---,0.00,VWS V14.01,2013-10-27 04:25:00,
2013-10-27 00:26:00,51.0,32.5,29.94,NW,315,4.0,13.0,49,0.00,,---,0.00,VWS V14.01,2013-10-27 04:26:00,
2013-10-27 00:30:00,50.8,32.3,29.95,WSW,238,5.0,13.0,49,0.00,,---,0.00,VWS V14.01,2013-10-27 04:30:00,
2013-10-27 00:31:00,50.7,32.2,29.95,WNW,282,1.0,5.0,49,0.00,,---,0.00,VWS V14.01,2013-10-27 04:31:00,
2013-10-27 00:35:00,50.5,32.1,29.95,WNW,290,0.0,8.0,49,0.00,,---,0.00,VWS V14.01,2013-10-27 04:35:00,
2013-10-27 00:36:00,50.5,32.1,29.95,WNW,289,2.0,13.0,49,0.00,,---,0.00,VWS V14.01,2013-10-27 04:36:00,
2013-10-27 00:40:00,50.4,33.0,29.95,WNW,293,2.0,13.0,51,0.00,,---,0.00,VWS V14.01,2013-10-27 04:40:00,
2013-10-27 00:42:00,50.2,32.3,29.95,West,281,2.0,7.0,50,0.00,,---,0.00,VWS V14.01,2013-10-27 04:42:00,
2013-10-27 00:45:00,50.1,32.7,29.95,West,259,8.0,8.0,51,0.00,,---,0.00,VWS V14.01,2013-10-27 04:45:00,
2013-10-27 00:47:00,49.9,32.0,29.95,WNW,284,0.0,8.0,50,0.00,,---,0.00,VWS V14.01,2013-10-27 04:47:00,
2013-10-27 00:50:00,49.8,32.4,29.95,WSW,258,0.0,8.0,51,0.00,,---,0.00,VWS V14.01,2013-10-27 04:50:00,
2013-10-27 00:52:00,49.8,32.9,29.96,WNW,302,3.0,9.0,52,0.00,,---,0.00,VWS V14.01,2013-10-27 04:52:00,
2013-10-27 00:55:00,49.5,32.6,29.95,West,266,1.0,9.0,52,0.00,,---,0.00,VWS V14.01,2013-10-27 04:55:00,
2013-10-27 00:57:00,49.4,33.0,29.96,West,263,0.0,2.0,53,0.00,,---,0.00,VWS V14.01,2013-10-27 04:57:00,
2013-10-27 01:00:00,49.2,32.3,29.96,West,263,1.0,2.0,52,0.00,,---,0.00,VWS V14.01,2013-10-27 05:00:00,
2013-10-27 01:02:00,49.1,32.7,29.95,West,263,0.0,2.0,53,0.00,,---,0.00,VWS V14.01,2013-10-27 05:02:00,
2013-10-27 01:05:00,48.9,32.1,29.95,West,272,1.0,3.0,52,0.00,,---,0.00,VWS V14.01,2013-10-27 05:05:00,
2013-10-27 01:07:00,48.8,32.4,29.95,West,272,1.0,1.0,53,0.00,,---,0.00,VWS V14.01,2013-10-27 05:07:00,
2013-10-27 01:10:00,48.6,32.7,29.95,West,272,0.0,1.0,54,0.00,,---,0.00,VWS V14.01,2013-10-27 05:10:00,
2013-10-27 01:12:00,48.6,32.7,29.95,West,272,0.0,2.0,54,0.00,,---,0.00,VWS V14.01,2013-10-27 05:12:00,
2013-10-27 01:15:00,48.5,32.2,29.95,West,272,0.0,2.0,53,0.00,,---,0.00,VWS V14.01,2013-10-27 05:15:00,
2013-10-27 01:17:00,48.3,33.8,29.95,West,268,4.0,5.0,57,0.00,,---,0.00,VWS V14.01,2013-10-27 05:17:00,
2013-10-27 01:20:00,48.2,32.3,29.95,WSW,257,3.0,5.0,54,0.00,,---,0.00,VWS V14.01,2013-10-27 05:20:00,
2013-10-27 01:22:00,48.2,32.3,29.95,WSW,247,0.0,3.0,54,0.00,,---,0.00,VWS V14.01,2013-10-27 05:22:00,
2013-10-27 01:25:00,48.2,32.3,29.95,WSW,247,0.0,3.0,54,0.00,,---,0.00,VWS V14.01,2013-10-27 05:25:00,
2013-10-27 01:27:00,48.0,32.2,29.95,WSW,247,0.0,2.0,54,0.00,,---,0.00,VWS V14.01,2013-10-27 05:27:00,
2013-10-27 01:30:00,48.0,32.2,29.95,WSW,248,1.0,2.0,54,0.00,,---,0.00,VWS V14.01,2013-10-27 05:30:00,
2013-10-27 01:32:00,48.0,32.2,29.95,WSW,248,0.0,1.0,54,0.00,,---,0.00,VWS V14.01,2013-10-27 05:32:00,
2013-10-27 01:35:00,50.5,32.1,29.95,WNW,290,0.0,8.0,49,0.00,,---,0.00,VWS V14.01,2013-10-27 05:35:00,
2013-10-27 01:37:00,48.0,33.1,29.95,WSW,248,0.0,1.0,56,0.00,,---,0.00,VWS V14.01,2013-10-27 05:37:00,
2013-10-27 01:40:00,48.0,33.9,29.95,WSW,248,0.0,1.0,58,0.00,,---,0.00,VWS V14.01,2013-10-27 05:40:00,
2013-10-27 01:42:00,47.9,33.8,29.95,WSW,248,0.0,1.0,58,0.00,,---,0.00,VWS V14.01,2013-10-27 05:42:00,
2013-10-27 01:45:00,47.9,33.4,29.95,WSW,248,0.0,1.0,57,0.00,,---,0.00,VWS V14.01,2013-10-27 05:45:00,
2013-10-27 01:47:00,47.9,33.4,29.95,WSW,248,0.0,0.0,57,0.00,,---,0.00,VWS V14.01,2013-10-27 05:47:00,
2013-10-27 01:50:00,47.9,33.4,29.95,West,265,0.0,3.0,57,0.00,,---,0.00,VWS V14.01,2013-10-27 05:50:00,
2013-10-27 01:52:00,47.7,34.1,29.95,West,265,0.0,1.0,59,0.00,,---,0.00,VWS V14.01,2013-10-27 05:52:00,
2013-10-27 01:55:00,49.5,32.6,29.95,West,266,1.0,9.0,52,0.00,,---,0.00,VWS V14.01,2013-10-27 05:55:00,
2013-10-27 01:57:00,47.7,33.7,29.95,West,265,0.0,0.0,58,0.00,,---,0.00,VWS V14.01,2013-10-27 05:57:00,
2013-10-27 02:00:00,47.7,33.7,29.95,West,265,0.0,0.0,58,0.00,,---,0.00,VWS V14.01,2013-10-27 06:00:00,
2013-10-27 02:02:00,47.7,34.1,29.95,West,265,0.0,1.0,59,0.00,,---,0.00,VWS V14.01,2013-10-27 06:02:00,
2013-10-27 02:05:00,47.6,34.0,29.95,West,265,0.0,1.0,59,0.00,,---,0.00,VWS V14.01,2013-10-27 06:05:00,
2013-10-27 02:07:00,47.6,34.0,29.95,West,265,0.0,0.0,59,0.00,,---,0.00,VWS V14.01,2013-10-27 06:07:00,
2013-10-27 02:10:00,47.6,34.4,29.95,West,265,0.0,0.0,60,0.00,,---,0.00,VWS V14.01,2013-10-27 06:10:00,
2013-10-27 02:12:00,47.6,34.4,29.95,West,265,0.0,1.0,60,0.00,,---,0.00,VWS V14.01,2013-10-27 06:12:00,
2013-10-27 02:15:00,48.5,32.2,29.95,West,272,0.0,2.0,53,0.00,,---,0.00,VWS V14.01,2013-10-27 06:15:00,
2013-10-27 02:17:00,47.4,33.8,29.95,West,265,0.0,0.0,59,0.00,,---,0.00,VWS V14.01,2013-10-27 06:17:00,
2013-10-27 02:20:00,47.4,33.8,29.95,West,265,0.0,0.0,59,0.00,,---,0.00,VWS V14.01,2013-10-27 06:20:00,
2013-10-27 02:22:00,47.4,34.2,29.95,West,265,0.0,1.0,60,0.00,,---,0.00,VWS V14.01,2013-10-27 06:22:00,
2013-10-27 02:25:00,47.4,34.6,29.95,West,265,0.0,1.0,61,0.00,,---,0.00,VWS V14.01,2013-10-27 06:25:00,
2013-10-27 02:27:00,47.4,34.6,29.95,West,265,0.0,0.0,61,0.00,,---,0.00,VWS V14.01,2013-10-27 06:27:00,
2013-10-27 02:30:00,48.0,32.2,29.95,WSW,248,1.0,2.0,54,0.00,,---,0.00,VWS V14.01,2013-10-27 06:30:00,
2013-10-27 02:32:00,47.4,35.0,29.95,West,265,0.0,0.0,62,0.00,,---,0.00,VWS V14.01,2013-10-27 06:32:00,
2013-10-27 02:35:00,48.0,32.6,29.95,WSW,248,0.0,1.0,55,0.00,,---,0.00,VWS V14.01,2013-10-27 06:35:00,
2013-10-27 02:37:00,47.3,35.0,29.95,West,265,0.0,0.0,62,0.00,,---,0.00,VWS V14.01,2013-10-27 06:37:00,
2013-10-27 02:40:00,47.3,35.0,29.95,West,265,0.0,0.0,62,0.00,,---,0.00,VWS V14.01,2013-10-27 06:40:00,
2013-10-27 02:42:00,47.3,35.4,29.95,West,265,0.0,0.0,63,0.00,,---,0.00,VWS V14.01,2013-10-27 06:42:00,
2013-10-27 02:45:00,47.9,33.4,29.95,WSW,248,0.0,1.0,57,0.00,,---,0.00,VWS V14.01,2013-10-27 06:45:00,
2013-10-27 02:47:00,47.3,35.8,29.95,West,265,0.0,0.0,64,0.00,,---,0.00,VWS V14.01,2013-10-27 06:47:00,
2013-10-27 02:50:00,47.9,33.4,29.95,West,265,0.0,3.0,57,0.00,,---,0.00,VWS V14.01,2013-10-27 06:50:00,
2013-10-27 02:52:00,47.1,35.6,29.95,West,265,0.0,0.0,64,0.00,,---,0.00,VWS V14.01,2013-10-27 06:52:00,
2013-10-27 02:55:00,47.1,36.0,29.95,West,265,0.0,0.0,65,0.00,,---,0.00,VWS V14.01,2013-10-27 06:55:00,
2013-10-27 02:57:00,47.1,35.6,29.95,West,265,0.0,0.0,64,0.00,,---,0.00,VWS V14.01,2013-10-27 06:57:00,
2013-10-27 03:00:00,47.1,35.6,29.95,West,265,0.0,0.0,64,0.00,,---,0.00,VWS V14.01,2013-10-27 07:00:00,
2013-10-27 03:02:00,47.1,36.0,29.95,West,265,0.0,0.0,65,0.00,,---,0.00,VWS V14.01,2013-10-27 07:02:00,
2013-10-27 03:05:00,47.1,37.1,29.95,West,265,0.0,1.0,68,0.00,,---,0.00,VWS V14.01,2013-10-27 07:05:00,
2013-10-27 03:07:00,47.0,36.6,29.95,West,265,0.0,0.0,67,0.00,,---,0.00,VWS V14.01,2013-10-27 07:07:00,
2013-10-27 03:10:00,47.0,36.6,29.95,West,265,0.0,0.0,67,0.00,,---,0.00,VWS V14.01,2013-10-27 07:10:00,
2013-10-27 03:12:00,47.0,36.6,29.95,West,265,0.0,0.0,67,0.00,,---,0.00,VWS V14.01,2013-10-27 07:12:00,
2013-10-27 03:15:00,47.0,35.9,29.95,West,265,0.0,0.0,65,0.00,,---,0.00,VWS V14.01,2013-10-27 07:15:00,
2013-10-27 03:17:00,46.8,35.7,29.95,West,265,0.0,1.0,65,0.00,,---,0.00,VWS V14.01,2013-10-27 07:17:00,
2013-10-27 03:20:00,46.8,35.3,29.95,West,265,0.0,1.0,64,0.00,,---,0.00,VWS V14.01,2013-10-27 07:20:00,
2013-10-27 03:22:00,46.8,35.3,29.95,West,265,0.0,0.0,64,0.00,,---,0.00,VWS V14.01,2013-10-27 07:22:00,
2013-10-27 03:25:00,46.8,35.3,29.95,West,265,0.0,0.0,64,0.00,,---,0.00,VWS V14.01,2013-10-27 07:25:00,
2013-10-27 03:27:00,46.8,36.0,29.95,West,265,0.0,0.0,66,0.00,,---,0.00,VWS V14.01,2013-10-27 07:27:00,
2013-10-27 03:30:00,46.8,36.4,29.95,West,265,1.0,1.0,67,0.00,,---,0.00,VWS V14.01,2013-10-27 07:30:00,
2013-10-27 03:32:00,46.7,36.0,29.95,West,265,1.0,2.0,66,0.00,,---,0.00,VWS V14.01,2013-10-27 07:32:00,
2013-10-27 03:35:00,46.5,36.2,29.95,West,265,2.0,2.0,67,0.00,,---,0.00,VWS V14.01,2013-10-27 07:35:00,
2013-10-27 03:37:00,46.4,35.7,29.95,West,262,1.0,3.0,66,0.00,,---,0.00,VWS V14.01,2013-10-27 07:37:00,
2013-10-27 03:40:00,46.2,35.9,29.95,West,262,1.0,3.0,67,0.00,,---,0.00,VWS V14.01,2013-10-27 07:40:00,
2013-10-27 03:42:00,46.1,35.8,29.95,West,262,0.0,1.0,67,0.00,,---,0.00,VWS V14.01,2013-10-27 07:42:00,
2013-10-27 03:45:00,46.1,35.8,29.95,West,262,0.0,2.0,67,0.00,,---,0.00,VWS V14.01,2013-10-27 07:45:00,
2013-10-27 03:47:00,46.0,35.7,29.95,West,281,2.0,4.0,67,0.00,,---,0.00,VWS V14.01,2013-10-27 07:47:00,
2013-10-27 03:50:00,45.8,35.5,29.95,West,272,0.0,4.0,67,0.00,,---,0.00,VWS V14.01,2013-10-27 07:50:00,
2013-10-27 03:52:00,45.8,35.1,29.95,West,272,0.0,0.0,66,0.00,,---,0.00,VWS V14.01,2013-10-27 07:52:00,
2013-10-27 03:55:00,45.7,34.2,29.95,West,272,0.0,0.0,64,0.00,,---,0.00,VWS V14.01,2013-10-27 07:55:00,
2013-10-27 03:57:00,45.7,35.0,29.95,West,272,0.0,0.0,66,0.00,,---,0.00,VWS V14.01,2013-10-27 07:57:00,
2013-10-27 04:00:00,45.5,34.0,29.95,West,272,0.0,0.0,64,0.00,,---,0.00,VWS V14.01,2013-10-27 08:00:00,
2013-10-27 04:02:00,45.5,34.8,29.95,West,272,0.0,2.0,66,0.00,,---,0.00,VWS V14.01,2013-10-27 08:02:00,
2013-10-27 04:05:00,45.4,34.7,29.96,West,272,0.0,2.0,66,0.00,,---,0.00,VWS V14.01,2013-10-27 08:05:00,
2013-10-27 04:07:00,45.4,35.1,29.96,West,270,2.0,4.0,67,0.00,,---,0.00,VWS V14.01,2013-10-27 08:07:00,
2013-10-27 04:10:00,45.4,35.1,29.96,West,269,1.0,4.0,67,0.00,,---,0.00,VWS V14.01,2013-10-27 08:10:00,
2013-10-27 04:12:00,45.2,35.3,29.96,West,269,0.0,1.0,68,0.00,,---,0.00,VWS V14.01,2013-10-27 08:12:00,
2013-10-27 04:15:00,45.2,34.9,29.96,West,269,0.0,1.0,67,0.00,,---,0.00,VWS V14.01,2013-10-27 08:15:00,
2013-10-27 04:17:00,45.2,34.5,29.95,West,269,0.0,1.0,66,0.00,,---,0.00,VWS V14.01,2013-10-27 08:17:00,
2013-10-27 04:20:00,45.2,35.3,29.95,West,269,0.0,1.0,68,0.00,,---,0.00,VWS V14.01,2013-10-27 08:20:00,
2013-10-27 04:22:00,45.1,34.4,29.95,West,269,1.0,1.0,66,0.00,,---,0.00,VWS V14.01,2013-10-27 08:22:00,
2013-10-27 04:25:00,45.1,35.2,29.95,West,269,2.0,2.0,68,0.00,,---,0.00,VWS V14.01,2013-10-27 08:25:00,
2013-10-27 04:27:00,45.1,35.2,29.96,West,269,0.0,2.0,68,0.00,,---,0.00,VWS V14.01,2013-10-27 08:27:00,
2013-10-27 04:30:00,45.1,34.8,29.96,West,269,0.0,2.0,67,0.00,,---,0.00,VWS V14.01,2013-10-27 08:30:00,
2013-10-27 04:32:00,45.1,35.2,29.95,West,269,0.0,0.0,68,0.00,,---,0.00,VWS V14.01,2013-10-27 08:32:00,
2013-10-27 04:35:00,45.1,35.2,29.96,West,269,0.0,1.0,68,0.00,,---,0.00,VWS V14.01,2013-10-27 08:35:00,
2013-10-27 04:37:00,44.9,35.4,29.96,West,269,1.0,1.0,69,0.00,,---,0.00,VWS V14.01,2013-10-27 08:37:00,
2013-10-27 04:40:00,44.9,35.4,29.96,West,269,0.0,1.0,69,0.00,,---,0.00,VWS V14.01,2013-10-27 08:40:00,
2013-10-27 04:42:00,44.8,35.3,29.96,West,270,0.0,1.0,69,0.00,,---,0.00,VWS V14.01,2013-10-27 08:42:00,
2013-10-27 04:45:00,44.8,35.3,29.96,West,270,0.0,1.0,69,0.00,,---,0.00,VWS V14.01,2013-10-27 08:45:00,
2013-10-27 04:47:00,44.6,35.1,29.96,West,269,0.0,0.0,69,0.00,,---,0.00,VWS V14.01,2013-10-27 08:47:00,
2013-10-27 04:50:00,44.6,35.4,29.96,West,269,0.0,0.0,70,0.00,,---,0.00,VWS V14.01,2013-10-27 08:50:00,
2013-10-27 04:52:00,44.5,35.7,29.96,West,269,0.0,0.0,71,0.00,,---,0.00,VWS V14.01,2013-10-27 08:52:00,
2013-10-27 04:55:00,44.5,35.7,29.96,West,269,0.0,0.0,71,0.00,,---,0.00,VWS V14.01,2013-10-27 08:55:00,
2013-10-27 04:57:00,44.3,35.5,29.96,West,269,0.0,0.0,71,0.00,,---,0.00,VWS V14.01,2013-10-27 08:57:00,
2013-10-27 05:00:00,44.3,35.5,29.96,West,269,0.0,1.0,71,0.00,,---,0.00,VWS V14.01,2013-10-27 09:00:00,
2013-10-27 05:03:00,44.2,35.4,29.97,West,269,0.0,2.0,71,0.00,,---,0.00,VWS V14.01,2013-10-27 09:03:00,
2013-10-27 05:05:00,44.2,35.8,29.97,West,269,1.0,3.0,72,0.00,,---,0.00,VWS V14.01,2013-10-27 09:05:00,
2013-10-27 05:08:00,44.1,35.7,29.97,West,269,0.0,2.0,72,0.00,,---,0.00,VWS V14.01,2013-10-27 09:08:00,
2013-10-27 05:10:00,43.9,35.5,29.97,West,269,0.0,2.0,72,0.00,,---,0.00,VWS V14.01,2013-10-27 09:10:00,
2013-10-27 05:13:00,43.8,35.4,29.97,West,269,0.0,0.0,72,0.00,,---,0.00,VWS V14.01,2013-10-27 09:13:00,
2013-10-27 05:15:00,43.8,35.7,29.97,West,269,0.0,1.0,73,0.00,,---,0.00,VWS V14.01,2013-10-27 09:15:00,
2013-10-27 05:18:00,43.6,35.2,29.97,West,269,1.0,2.0,72,0.00,,---,0.00,VWS V14.01,2013-10-27 09:18:00,
2013-10-27 05:20:00,45.2,35.3,29.95,West,269,0.0,1.0,68,0.00,,---,0.00,VWS V14.01,2013-10-27 09:20:00,
2013-10-27 05:23:00,43.3,34.5,29.97,West,261,0.0,6.0,71,0.00,,---,0.00,VWS V14.01,2013-10-27 09:23:00,
2013-10-27 05:25:00,43.3,34.5,29.97,WNW,288,1.0,6.0,71,0.00,,---,0.00,VWS V14.01,2013-10-27 09:25:00,
2013-10-27 05:28:00,43.3,34.5,29.98,WNW,288,0.0,2.0,71,0.00,,---,0.00,VWS V14.01,2013-10-27 09:28:00,
2013-10-27 05:30:00,43.3,34.5,29.98,WNW,288,0.0,2.0,71,0.00,,---,0.00,VWS V14.01,2013-10-27 09:30:00,
2013-10-27 05:33:00,43.2,34.5,29.98,WNW,282,0.0,3.0,71,0.00,,---,0.00,VWS V14.01,2013-10-27 09:33:00,
2013-10-27 05:35:00,43.2,34.1,29.98,WNW,282,0.0,3.0,70,0.00,,---,0.00,VWS V14.01,2013-10-27 09:35:00,
2013-10-27 05:38:00,43.2,33.7,29.98,WNW,282,0.0,1.0,69,0.00,,---,0.00,VWS V14.01,2013-10-27 09:38:00,
2013-10-27 05:40:00,43.2,33.7,29.98,WNW,282,0.0,1.0,69,0.00,,---,0.00,VWS V14.01,2013-10-27 09:40:00,
2013-10-27 05:43:00,43.2,33.7,29.98,WNW,282,0.0,0.0,69,0.00,,---,0.00,VWS V14.01,2013-10-27 09:43:00,
2013-10-27 05:45:00,43.2,34.1,29.98,WNW,282,0.0,0.0,70,0.00,,---,0.00,VWS V14.01,2013-10-27 09:45:00,
2013-10-27 05:48:00,43.1,33.6,29.98,WNW,282,1.0,2.0,69,0.00,,---,0.00,VWS V14.01,2013-10-27 09:48:00,
2013-10-27 05:50:00,43.1,34.0,29.98,WNW,282,0.0,2.0,70,0.00,,---,0.00,VWS V14.01,2013-10-27 09:50:00,
2013-10-27 05:53:00,43.1,34.0,29.98,WNW,282,0.0,1.0,70,0.00,,---,0.00,VWS V14.01,2013-10-27 09:53:00,
2013-10-27 05:55:00,42.9,33.8,29.98,WNW,282,0.0,1.0,70,0.00,,---,0.00,VWS V14.01,2013-10-27 09:55:00,
2013-10-27 05:58:00,42.9,33.8,29.98,SE,128,2.0,3.0,70,0.00,,---,0.00,VWS V14.01,2013-10-27 09:58:00,
2013-10-27 06:00:00,42.8,34.1,29.98,SE,128,2.0,3.0,71,0.00,,---,0.00,VWS V14.01,2013-10-27 10:00:00,
2013-10-27 06:03:00,42.6,34.2,29.98,SE,128,0.0,2.0,72,0.00,,---,0.00,VWS V14.01,2013-10-27 10:03:00,
2013-10-27 06:05:00,42.6,34.2,29.99,SE,128,0.0,2.0,72,0.00,,---,0.00,VWS V14.01,2013-10-27 10:05:00,
2013-10-27 06:08:00,42.3,33.9,29.99,SE,128,0.0,0.0,72,0.00,,---,0.00,VWS V14.01,2013-10-27 10:08:00,
2013-10-27 06:10:00,42.3,33.9,29.99,SE,128,0.0,0.0,72,0.00,,---,0.00,VWS V14.01,2013-10-27 10:10:00,
2013-10-27 06:13:00,42.2,33.8,29.99,SE,128,0.0,0.0,72,0.00,,---,0.00,VWS V14.01,2013-10-27 10:13:00,
2013-10-27 06:15:00,42.2,34.2,29.99,SE,128,0.0,0.0,73,0.00,,---,0.00,VWS V14.01,2013-10-27 10:15:00,
2013-10-27 06:18:00,41.9,33.5,29.99,SE,128,0.0,2.0,72,0.00,,---,0.00,VWS V14.01,2013-10-27 10:18:00,
2013-10-27 06:20:00,41.9,33.5,30.00,SE,128,0.0,2.0,72,0.00,,---,0.00,VWS V14.01,2013-10-27 10:20:00,
2013-10-27 06:23:00,41.6,33.9,30.00,SSW,199,0.0,2.0,74,0.00,,---,0.00,VWS V14.01,2013-10-27 10:23:00,
2013-10-27 06:25:00,41.6,33.9,30.00,SSW,199,0.0,2.0,74,0.00,,---,0.00,VWS V14.01,2013-10-27 10:25:00,
2013-10-27 06:28:00,41.5,34.2,29.99,SSW,199,1.0,2.0,75,0.00,,---,0.00,VWS V14.01,2013-10-27 10:28:00,
2013-10-27 06:30:00,41.3,34.0,30.00,SSW,211,1.0,2.0,75,0.00,,---,0.00,VWS V14.01,2013-10-27 10:30:00,
2013-10-27 06:33:00,41.2,33.9,29.99,SSW,211,0.0,2.0,75,0.00,,---,0.00,VWS V14.01,2013-10-27 10:33:00,
2013-10-27 06:35:00,41.2,33.9,29.99,SSW,211,0.0,2.0,75,0.00,,---,0.00,VWS V14.01,2013-10-27 10:35:00,
2013-10-27 06:38:00,41.1,33.8,29.99,SSW,211,0.0,1.0,75,0.00,,---,0.00,VWS V14.01,2013-10-27 10:38:00,
2013-10-27 06:40:00,41.1,33.8,29.99,SSW,211,0.0,1.0,75,0.00,,---,0.00,VWS V14.01,2013-10-27 10:40:00,
2013-10-27 06:43:00,41.1,33.8,30.00,SSW,211,0.0,0.0,75,0.00,,---,0.00,VWS V14.01,2013-10-27 10:43:00,
2013-10-27 06:45:00,41.1,33.8,30.00,SSW,211,0.0,0.0,75,0.00,,---,0.00,VWS V14.01,2013-10-27 10:45:00,
2013-10-27 06:48:00,40.9,33.3,30.00,SSW,211,0.0,1.0,74,0.00,,---,0.00,VWS V14.01,2013-10-27 10:48:00,
2013-10-27 06:50:00,40.9,33.3,30.00,SSW,211,1.0,1.0,74,0.00,,---,0.00,VWS V14.01,2013-10-27 10:50:00,
2013-10-27 06:53:00,40.9,33.3,30.00,SSW,211,0.0,1.0,74,0.00,,---,0.00,VWS V14.01,2013-10-27 10:53:00,
2013-10-27 06:55:00,40.9,33.3,30.00,SSW,211,0.0,1.0,74,0.00,,---,0.00,VWS V14.01,2013-10-27 10:55:00,
2013-10-27 06:58:00,40.8,33.2,30.00,SSW,211,0.0,0.0,74,0.00,,---,0.00,VWS V14.01,2013-10-27 10:58:00,
2013-10-27 07:00:00,40.8,33.2,30.00,SSW,211,0.0,0.0,74,0.00,,---,0.00,VWS V14.01,2013-10-27 11:00:00,
2013-10-27 07:03:00,40.6,33.3,30.00,SSW,211,0.0,0.0,75,0.00,,---,0.00,VWS V14.01,2013-10-27 11:03:00,
2013-10-27 07:05:00,40.6,33.3,30.00,SSW,211,0.0,0.0,75,0.00,,---,0.00,VWS V14.01,2013-10-27 11:05:00,
2013-10-27 07:08:00,40.5,33.5,30.00,SSW,211,0.0,0.0,76,0.00,,---,0.00,VWS V14.01,2013-10-27 11:08:00,
2013-10-27 07:10:00,40.5,33.5,30.00,SSW,211,0.0,0.0,76,0.00,,---,0.00,VWS V14.01,2013-10-27 11:10:00,
2013-10-27 07:13:00,40.2,33.9,30.00,SSW,211,0.0,0.0,78,0.00,,---,0.00,VWS V14.01,2013-10-27 11:13:00,
2013-10-27 07:15:00,40.1,33.8,30.00,SSW,211,0.0,0.0,78,0.00,,---,0.00,VWS V14.01,2013-10-27 11:15:00,
2013-10-27 07:18:00,39.8,33.8,30.00,SSW,211,0.0,0.0,79,0.00,,---,0.00,VWS V14.01,2013-10-27 11:18:00,
2013-10-27 07:20:00,39.8,33.8,30.00,SSW,211,0.0,0.0,79,0.00,,---,0.00,VWS V14.01,2013-10-27 11:20:00,
2013-10-27 07:24:00,39.5,33.5,30.00,SSW,211,0.0,0.0,79,0.00,,---,0.00,VWS V14.01,2013-10-27 11:24:00,
2013-10-27 07:25:00,39.3,33.7,30.00,SSW,211,0.0,0.0,80,0.00,,---,0.00,VWS V14.01,2013-10-27 11:25:00,
2013-10-27 07:29:00,39.1,33.5,30.01,SSW,211,0.0,0.0,80,0.00,,---,0.00,VWS V14.01,2013-10-27 11:29:00,
2013-10-27 07:30:00,39.1,33.8,30.01,SSW,211,0.0,0.0,81,0.00,,---,0.00,VWS V14.01,2013-10-27 11:30:00,
2013-10-27 07:34:00,38.8,33.8,30.01,SSW,211,0.0,1.0,82,0.00,,---,0.00,VWS V14.01,2013-10-27 11:34:00,
2013-10-27 07:35:00,38.6,33.6,30.01,SSW,211,0.0,1.0,82,0.00,,---,0.00,VWS V14.01,2013-10-27 11:35:00,
2013-10-27 07:39:00,38.5,33.8,30.01,SSW,211,0.0,0.0,83,0.00,,---,0.00,VWS V14.01,2013-10-27 11:39:00,
2013-10-27 07:40:00,38.5,33.8,30.01,SSW,211,0.0,0.0,83,0.00,,---,0.00,VWS V14.01,2013-10-27 11:40:00,
2013-10-27 07:44:00,38.3,33.6,30.02,SSW,211,0.0,0.0,83,0.00,,---,0.00,VWS V14.01,2013-10-27 11:44:00,
2013-10-27 07:45:00,38.2,33.5,30.02,SSW,211,0.0,0.0,83,0.00,,---,0.00,VWS V14.01,2013-10-27 11:45:00,
2013-10-27 07:49:00,38.2,33.5,30.02,SSW,211,0.0,0.0,83,0.00,,---,0.00,VWS V14.01,2013-10-27 11:49:00,
2013-10-27 07:50:00,38.0,33.3,30.02,SSW,211,0.0,0.0,83,0.00,,---,0.00,VWS V14.01,2013-10-27 11:50:00,
2013-10-27 07:54:00,37.9,33.5,30.02,SSW,211,0.0,0.0,84,0.00,,---,0.00,VWS V14.01,2013-10-27 11:54:00,
2013-10-27 07:55:00,37.9,33.5,30.02,SSW,211,0.0,0.0,84,0.00,,---,0.00,VWS V14.01,2013-10-27 11:55:00,
2013-10-27 07:59:00,37.8,33.4,30.02,SSW,211,0.0,0.0,84,0.00,,---,0.00,VWS V14.01,2013-10-27 11:59:00,
2013-10-27 08:00:00,37.8,33.4,30.02,SSW,211,0.0,0.0,84,0.00,,---,0.00,VWS V14.01,2013-10-27 12:00:00,
2013-10-27 08:04:00,37.8,33.4,30.02,SSW,211,0.0,0.0,84,0.00,,---,0.00,VWS V14.01,2013-10-27 12:04:00,
2013-10-27 08:05:00,37.8,33.4,30.02,SSW,211,0.0,0.0,84,0.00,,---,0.00,VWS V14.01,2013-10-27 12:05:00,
2013-10-27 08:09:00,37.6,33.5,30.02,SSW,211,0.0,0.0,85,0.00,,---,0.00,VWS V14.01,2013-10-27 12:09:00,
2013-10-27 08:10:00,37.6,33.5,30.02,SSW,211,0.0,0.0,85,0.00,,---,0.00,VWS V14.01,2013-10-27 12:10:00,
2013-10-27 08:14:00,37.6,33.5,30.03,SSW,211,0.0,0.0,85,0.00,,---,0.00,VWS V14.01,2013-10-27 12:14:00,
2013-10-27 08:15:00,37.6,33.5,30.03,SSW,211,0.0,0.0,85,0.00,,---,0.00,VWS V14.01,2013-10-27 12:15:00,
2013-10-27 08:19:00,37.8,34.0,30.03,SSW,211,0.0,0.0,86,0.00,,---,0.00,VWS V14.01,2013-10-27 12:19:00,
2013-10-27 08:20:00,37.8,34.0,30.03,SSW,211,0.0,0.0,86,0.00,,---,0.00,VWS V14.01,2013-10-27 12:20:00,
2013-10-27 08:24:00,37.8,34.0,30.03,SSW,211,0.0,0.0,86,0.00,,---,0.00,VWS V14.01,2013-10-27 12:24:00,
2013-10-27 08:25:00,37.8,34.0,30.03,SSW,211,0.0,0.0,86,0.00,,---,0.00,VWS V14.01,2013-10-27 12:25:00,
2013-10-27 08:29:00,37.9,34.4,30.03,SSW,211,0.0,0.0,87,0.00,,---,0.00,VWS V14.01,2013-10-27 12:29:00,
2013-10-27 08:30:00,37.9,34.4,30.03,SSW,211,0.0,0.0,87,0.00,,---,0.00,VWS V14.01,2013-10-27 12:30:00,
2013-10-27 08:31:00,38.0,34.5,30.04,SSW,211,0.0,0.0,87,0.00,,---,0.00,VWS V14.01,2013-10-27 12:31:00,
2013-10-27 08:35:00,38.2,35.0,30.04,SSW,211,0.0,0.0,88,0.00,,---,0.00,VWS V14.01,2013-10-27 12:35:00,
2013-10-27 08:36:00,38.2,35.0,30.04,SSW,211,0.0,0.0,88,0.00,,---,0.00,VWS V14.01,2013-10-27 12:36:00,
2013-10-27 08:40:00,38.3,35.1,30.04,SSW,211,0.0,0.0,88,0.00,,---,0.00,VWS V14.01,2013-10-27 12:40:00,
2013-10-27 08:41:00,38.5,35.5,30.04,SSW,211,0.0,0.0,89,0.00,,---,0.00,VWS V14.01,2013-10-27 12:41:00,
2013-10-27 08:45:00,38.6,35.6,30.04,SSW,211,0.0,0.0,89,0.00,,---,0.00,VWS V14.01,2013-10-27 12:45:00,
2013-10-27 08:46:00,38.6,35.6,30.04,SSW,211,0.0,0.0,89,0.00,,---,0.00,VWS V14.01,2013-10-27 12:46:00,
2013-10-27 08:50:00,38.8,36.1,30.04,SSW,211,0.0,0.0,90,0.00,,---,0.00,VWS V14.01,2013-10-27 12:50:00,
2013-10-27 08:51:00,38.9,36.2,30.04,SSW,211,0.0,0.0,90,0.00,,---,0.00,VWS V14.01,2013-10-27 12:51:00,
2013-10-27 08:55:00,39.1,36.4,30.05,SSW,211,0.0,0.0,90,0.00,,---,0.00,VWS V14.01,2013-10-27 12:55:00,
2013-10-27 08:56:00,39.2,36.5,30.05,SSW,211,0.0,0.0,90,0.00,,---,0.00,VWS V14.01,2013-10-27 12:56:00,
2013-10-27 09:00:00,39.5,36.8,30.04,SSW,211,0.0,0.0,90,0.00,,---,0.00,VWS V14.01,2013-10-27 13:00:00,
2013-10-27 09:01:00,39.6,37.2,30.04,SSW,211,0.0,0.0,91,0.00,,---,0.00,VWS V14.01,2013-10-27 13:01:00,
2013-10-27 09:05:00,39.9,37.5,30.05,SSW,211,0.0,0.0,91,0.00,,---,0.00,VWS V14.01,2013-10-27 13:05:00,
2013-10-27 09:06:00,40.1,37.7,30.05,SSW,211,0.0,0.0,91,0.00,,---,0.00,VWS V14.01,2013-10-27 13:06:00,
2013-10-27 09:10:00,40.3,37.9,30.05,SSW,211,0.0,0.0,91,0.00,,---,0.00,VWS V14.01,2013-10-27 13:10:00,
2013-10-27 09:11:00,40.6,38.2,30.05,SSW,211,0.0,0.0,91,0.00,,---,0.00,VWS V14.01,2013-10-27 13:11:00,
2013-10-27 09:15:00,40.9,38.5,30.05,SSW,211,0.0,0.0,91,0.00,,---,0.00,VWS V14.01,2013-10-27 13:15:00,
2013-10-27 09:16:00,41.2,38.8,30.05,SSW,211,0.0,0.0,91,0.00,,---,0.00,VWS V14.01,2013-10-27 13:16:00,
2013-10-27 09:20:00,41.6,39.5,30.05,SSW,211,0.0,0.0,92,0.00,,---,0.00,VWS V14.01,2013-10-27 13:20:00,
2013-10-27 09:21:00,41.9,39.5,30.05,SSW,211,0.0,1.0,91,0.00,,---,0.00,VWS V14.01,2013-10-27 13:21:00,
2013-10-27 09:25:00,42.3,39.6,30.05,SSW,211,1.0,2.0,90,0.00,,---,0.00,VWS V14.01,2013-10-27 13:25:00,
2013-10-27 09:26:00,42.5,39.5,30.05,SSW,211,0.0,2.0,89,0.00,,---,0.00,VWS V14.01,2013-10-27 13:26:00,
2013-10-27 09:30:00,42.8,38.9,30.05,SSW,211,0.0,2.0,86,0.00,,---,0.00,VWS V14.01,2013-10-27 13:30:00,
2013-10-27 09:31:00,43.1,38.6,30.05,SSW,211,0.0,1.0,84,0.00,,---,0.00,VWS V14.01,2013-10-27 13:31:00,
2013-10-27 09:35:00,43.3,38.2,30.06,West,259,2.0,3.0,82,0.00,,---,0.00,VWS V14.01,2013-10-27 13:35:00,
2013-10-27 09:37:00,43.6,37.5,30.06,West,259,1.0,2.0,79,0.00,,---,0.00,VWS V14.01,2013-10-27 13:37:00,
2013-10-27 09:40:00,44.1,38.0,30.06,West,259,1.0,2.0,79,0.00,,---,0.00,VWS V14.01,2013-10-27 13:40:00,
2013-10-27 09:42:00,44.5,38.1,30.05,West,259,0.0,1.0,78,0.00,,---,0.00,VWS V14.01,2013-10-27 13:42:00,
2013-10-27 09:45:00,44.9,37.1,30.06,WSW,254,1.0,4.0,74,0.00,,---,0.00,VWS V14.01,2013-10-27 13:45:00,
2013-10-27 09:47:00,45.2,37.1,30.05,WSW,257,2.0,2.0,73,0.00,,---,0.00,VWS V14.01,2013-10-27 13:47:00,
2013-10-27 09:50:00,45.7,36.8,30.05,West,260,1.0,3.0,71,0.00,,---,0.00,VWS V14.01,2013-10-27 13:50:00,
2013-10-27 09:52:00,45.8,37.0,30.06,West,275,1.0,3.0,71,0.00,,---,0.00,VWS V14.01,2013-10-27 13:52:00,
2013-10-27 09:55:00,46.2,36.6,30.06,WSW,246,2.0,5.0,69,0.00,,---,0.00,VWS V14.01,2013-10-27 13:55:00,
2013-10-27 09:57:00,46.4,36.8,30.06,WSW,245,2.0,4.0,69,0.00,,---,0.00,VWS V14.01,2013-10-27 13:57:00,
2013-10-27 10:00:00,46.8,36.4,30.05,West,273,2.0,5.0,67,0.00,,---,0.00,VWS V14.01,2013-10-27 14:00:00,
2013-10-27 10:02:00,47.0,37.0,30.05,West,275,3.0,6.0,68,0.00,,---,0.00,VWS V14.01,2013-10-27 14:02:00,
2013-10-27 10:05:00,47.4,37.0,30.05,WSW,242,5.0,6.0,67,0.00,,---,0.00,VWS V14.01,2013-10-27 14:05:00,
2013-10-27 10:07:00,47.6,36.4,30.05,West,281,2.0,6.0,65,0.00,,---,0.00,VWS V14.01,2013-10-27 14:07:00,
2013-10-27 10:10:00,47.9,36.7,30.05,WNW,292,1.0,6.0,65,0.00,,---,0.00,VWS V14.01,2013-10-27 14:10:00,
2013-10-27 10:12:00,48.0,36.8,30.05,WNW,292,3.0,3.0,65,0.00,,---,0.00,VWS V14.01,2013-10-27 14:12:00,
2013-10-27 10:15:00,48.0,36.4,30.05,West,279,1.0,5.0,64,0.00,,---,0.00,VWS V14.01,2013-10-27 14:15:00,
2013-10-27 10:17:00,48.0,36.0,30.05,WSW,242,5.0,5.0,63,0.00,,---,0.00,VWS V14.01,2013-10-27 14:17:00,
2013-10-27 10:20:00,47.9,36.7,30.05,West,261,2.0,5.0,65,0.00,,---,0.00,VWS V14.01,2013-10-27 14:20:00,
2013-10-27 10:22:00,47.7,36.5,30.05,WNW,287,2.0,5.0,65,0.00,,---,0.00,VWS V14.01,2013-10-27 14:22:00,
2013-10-27 10:25:00,47.7,36.1,30.05,West,273,3.0,5.0,64,0.00,,---,0.00,VWS V14.01,2013-10-27 14:25:00,
2013-10-27 10:27:00,47.7,36.5,30.05,WSW,257,1.0,5.0,65,0.00,,---,0.00,VWS V14.01,2013-10-27 14:27:00,
2013-10-27 10:30:00,47.7,36.5,30.05,WNW,286,3.0,5.0,65,0.00,,---,0.00,VWS V14.01,2013-10-27 14:30:00,
2013-10-27 10:32:00,47.7,36.5,30.05,West,268,3.0,5.0,65,0.00,,---,0.00,VWS V14.01,2013-10-27 14:32:00,
2013-10-27 10:35:00,47.7,36.5,30.05,SW,214,1.0,5.0,65,0.00,,---,0.00,VWS V14.01,2013-10-27 14:35:00,
2013-10-27 10:37:00,47.7,36.5,30.05,West,281,3.0,4.0,65,0.00,,---,0.00,VWS V14.01,2013-10-27 14:37:00,
2013-10-27 10:40:00,47.7,36.5,30.05,SW,232,1.0,4.0,65,0.00,,---,0.00,VWS V14.01,2013-10-27 14:40:00,
2013-10-27 10:42:00,47.7,36.9,30.05,SW,232,0.0,2.0,66,0.00,,---,0.00,VWS V14.01,2013-10-27 14:42:00,
2013-10-27 10:45:00,47.7,36.5,30.05,WSW,258,1.0,4.0,65,0.00,,---,0.00,VWS V14.01,2013-10-27 14:45:00,
2013-10-27 10:47:00,47.7,36.9,30.05,WSW,257,1.0,3.0,66,0.00,,---,0.00,VWS V14.01,2013-10-27 14:47:00,
2013-10-27 10:50:00,47.9,37.5,30.05,West,281,2.0,3.0,67,0.00,,---,0.00,VWS V14.01,2013-10-27 14:50:00,
2013-10-27 10:52:00,48.2,36.6,30.05,NW,312,0.0,7.0,64,0.00,,---,0.00,VWS V14.01,2013-10-27 14:52:00,
2013-10-27 10:55:00,48.5,37.3,30.05,WNW,284,5.0,7.0,65,0.00,,---,0.00,VWS V14.01,2013-10-27 14:55:00,
2013-10-27 10:57:00,48.8,37.6,30.05,WNW,290,1.0,6.0,65,0.00,,---,0.00,VWS V14.01,2013-10-27 14:57:00,
2013-10-27 11:00:00,49.2,37.2,30.05,WNW,292,2.0,6.0,63,0.00,,---,0.00,VWS V14.01,2013-10-27 15:00:00,
2013-10-27 11:02:00,49.5,37.0,30.05,SW,234,2.0,8.0,62,0.00,,---,0.00,VWS V14.01,2013-10-27 15:02:00,
2013-10-27 11:05:00,49.8,37.7,30.05,WNW,296,5.0,8.0,63,0.00,,---,0.00,VWS V14.01,2013-10-27 15:05:00,
2013-10-27 11:07:00,50.1,37.2,30.05,West,260,0.0,6.0,61,0.00,,---,0.00,VWS V14.01,2013-10-27 15:07:00,
2013-10-27 11:10:00,50.2,38.1,30.05,WSW,243,1.0,6.0,63,0.00,,---,0.00,VWS V14.01,2013-10-27 15:10:00,
2013-10-27 11:12:00,50.4,38.3,30.05,WSW,240,4.0,5.0,63,0.00,,---,0.00,VWS V14.01,2013-10-27 15:12:00,
2013-10-27 11:15:00,50.5,36.7,30.05,SW,236,3.0,5.0,59,0.00,,---,0.00,VWS V14.01,2013-10-27 15:15:00,
2013-10-27 11:17:00,50.8,37.4,30.05,WNW,282,6.0,7.0,60,0.00,,---,0.00,VWS V14.01,2013-10-27 15:17:00,
2013-10-27 11:20:00,51.1,37.7,30.05,NW,325,2.0,7.0,60,0.00,,---,0.00,VWS V14.01,2013-10-27 15:20:00,
2013-10-27 11:22:00,51.3,37.9,30.05,West,269,2.0,5.0,60,0.00,,---,0.00,VWS V14.01,2013-10-27 15:22:00,
2013-10-27 11:25:00,51.4,37.6,30.05,SW,236,3.0,5.0,59,0.00,,---,0.00,VWS V14.01,2013-10-27 15:25:00,
2013-10-27 11:27:00,51.6,37.3,30.05,WSW,248,6.0,6.0,58,0.00,,---,0.00,VWS V14.01,2013-10-27 15:27:00,
2013-10-27 11:30:00,51.7,37.0,30.05,WNW,297,2.0,6.0,57,0.00,,---,0.00,VWS V14.01,2013-10-27 15:30:00,
2013-10-27 11:32:00,52.0,37.7,30.05,WNW,301,5.0,14.0,58,0.00,,---,0.00,VWS V14.01,2013-10-27 15:32:00,
2013-10-27 11:35:00,52.0,36.3,30.05,WNW,290,6.0,14.0,55,0.00,,---,0.00,VWS V14.01,2013-10-27 15:35:00,
2013-10-27 11:37:00,52.2,37.0,30.05,SW,223,7.0,10.0,56,0.00,,---,0.00,VWS V14.01,2013-10-27 15:37:00,
2013-10-27 11:40:00,52.3,37.1,30.05,WNW,296,2.0,10.0,56,0.00,,---,0.00,VWS V14.01,2013-10-27 15:40:00,
2013-10-27 11:42:00,52.5,37.3,30.05,NW,304,4.0,6.0,56,0.00,,---,0.00,VWS V14.01,2013-10-27 15:42:00,
2013-10-27 11:45:00,52.6,37.4,30.05,WSW,256,1.0,6.0,56,0.00,,---,0.00,VWS V14.01,2013-10-27 15:45:00,
2013-10-27 11:47:00,52.8,37.5,30.05,WNW,300,3.0,5.0,56,0.00,,---,0.00,VWS V14.01,2013-10-27 15:47:00,
2013-10-27 11:50:00,52.9,37.7,30.05,WSW,241,3.0,5.0,56,0.00,,---,0.00,VWS V14.01,2013-10-27 15:50:00,
2013-10-27 11:52:00,53.1,38.3,30.05,NW,321,3.0,8.0,57,0.00,,---,0.00,VWS V14.01,2013-10-27 15:52:00,
2013-10-27 11:55:00,53.2,37.0,30.05,NW,305,1.0,8.0,54,0.00,,---,0.00,VWS V14.01,2013-10-27 15:55:00,
2013-10-27 11:57:00,53.1,36.0,30.05,West,271,4.0,7.0,52,0.00,,---,0.00,VWS V14.01,2013-10-27 15:57:00,
2013-10-27 12:00:00,53.1,35.5,30.05,West,276,2.0,7.0,51,0.00,,---,0.00,VWS V14.01,2013-10-27 16:00:00,
2013-10-27 12:02:00,52.9,36.7,30.05,SSE,167,6.0,12.0,54,0.00,,---,0.00,VWS V14.01,2013-10-27 16:02:00,
2013-10-27 12:05:00,52.8,36.2,30.05,West,273,4.0,12.0,53,0.00,,---,0.00,VWS V14.01,2013-10-27 16:05:00,
2013-10-27 12:07:00,52.8,37.1,30.04,SW,230,5.0,9.0,55,0.00,,---,0.00,VWS V14.01,2013-10-27 16:07:00,
2013-10-27 12:10:00,52.9,37.2,30.04,NW,307,0.0,9.0,55,0.00,,---,0.00,VWS V14.01,2013-10-27 16:10:00,
2013-10-27 12:12:00,53.2,38.4,30.04,West,265,5.0,11.0,57,0.00,,---,0.00,VWS V14.01,2013-10-27 16:12:00,
2013-10-27 12:15:00,53.3,37.1,30.04,NW,318,5.0,11.0,54,0.00,,---,0.00,VWS V14.01,2013-10-27 16:15:00,
2013-10-27 12:17:00,53.6,37.4,30.04,WSW,255,4.0,12.0,54,0.00,,---,0.00,VWS V14.01,2013-10-27 16:17:00,
2013-10-27 12:20:00,53.8,36.1,30.04,West,279,2.0,12.0,51,0.00,,---,0.00,VWS V14.01,2013-10-27 16:20:00,
2013-10-27 12:23:00,53.9,37.2,30.04,WNW,294,6.0,14.0,53,0.00,,---,0.00,VWS V14.01,2013-10-27 16:23:00,
2013-10-27 12:25:00,54.1,35.9,30.04,NW,310,1.0,14.0,50,0.00,,---,0.00,VWS V14.01,2013-10-27 16:25:00,
2013-10-27 12:28:00,54.2,36.5,30.04,WNW,289,1.0,7.0,51,0.00,,---,0.00,VWS V14.01,2013-10-27 16:28:00,
2013-10-27 12:30:00,54.4,36.2,30.03,NW,311,2.0,7.0,50,0.00,,---,0.00,VWS V14.01,2013-10-27 16:30:00,
2013-10-27 12:33:00,54.5,37.2,30.03,West,268,9.0,9.0,52,0.00,,---,0.00,VWS V14.01,2013-10-27 16:33:00,
2013-10-27 12:35:00,54.7,36.4,30.03,WSW,247,5.0,11.0,50,0.00,,---,0.00,VWS V14.01,2013-10-27 16:35:00,
2013-10-27 12:38:00,54.8,37.5,30.03,WSW,255,10.0,18.0,52,0.00,,---,0.00,VWS V14.01,2013-10-27 16:38:00,
2013-10-27 12:40:00,54.8,36.0,30.03,WNW,296,3.0,18.0,49,0.00,,---,0.00,VWS V14.01,2013-10-27 16:40:00,
2013-10-27 12:43:00,54.8,35.5,30.03,WNW,294,3.0,13.0,48,0.00,,---,0.00,VWS V14.01,2013-10-27 16:43:00,
2013-10-27 12:45:00,54.8,35.5,30.03,West,265,7.0,13.0,48,0.00,,---,0.00,VWS V14.01,2013-10-27 16:45:00,
2013-10-27 12:48:00,54.5,35.2,30.03,NW,307,3.0,16.0,48,0.00,,---,0.00,VWS V14.01,2013-10-27 16:48:00,
2013-10-27 12:50:00,54.5,35.2,30.03,NW,309,5.0,16.0,48,0.00,,---,0.00,VWS V14.01,2013-10-27 16:50:00,
2013-10-27 12:53:00,54.4,35.1,30.03,NW,323,3.0,7.0,48,0.00,,---,0.00,VWS V14.01,2013-10-27 16:53:00,
2013-10-27 12:55:00,54.4,34.6,30.03,NW,311,1.0,8.0,47,0.00,,---,0.00,VWS V14.01,2013-10-27 16:55:00,
2013-10-27 12:58:00,54.4,36.2,30.03,WSW,258,6.0,11.0,50,0.00,,---,0.00,VWS V14.01,2013-10-27 16:58:00,
2013-10-27 13:00:00,53.1,35.5,30.05,West,276,2.0,7.0,51,0.00,,---,0.00,VWS V14.01,2013-10-27 17:00:00,
2013-10-27 13:03:00,54.7,35.4,30.02,West,259,5.0,12.0,48,0.00,,---,0.00,VWS V14.01,2013-10-27 17:03:00,
2013-10-27 13:05:00,54.8,36.5,30.02,WNW,296,4.0,12.0,50,0.00,,---,0.00,VWS V14.01,2013-10-27 17:05:00,
2013-10-27 13:08:00,54.8,34.4,30.02,West,273,11.0,12.0,46,0.00,,---,0.00,VWS V14.01,2013-10-27 17:08:00,
2013-10-27 13:10:00,54.8,34.4,30.02,West,280,5.0,12.0,46,0.00,,---,0.00,VWS V14.01,2013-10-27 17:10:00,
2013-10-27 13:13:00,55.0,35.7,30.02,West,279,7.0,15.0,48,0.00,,---,0.00,VWS V14.01,2013-10-27 17:13:00,
2013-10-27 13:15:00,55.0,35.7,30.02,WSW,238,7.0,15.0,48,0.00,,---,0.00,VWS V14.01,2013-10-27 17:15:00,
2013-10-27 13:18:00,55.1,35.8,30.02,WNW,288,6.0,13.0,48,0.00,,---,0.00,VWS V14.01,2013-10-27 17:18:00,
2013-10-27 13:20:00,55.1,35.2,30.02,WSW,240,5.0,13.0,47,0.00,,---,0.00,VWS V14.01,2013-10-27 17:20:00,
2013-10-27 13:23:00,55.4,36.1,30.01,West,280,10.0,13.0,48,0.00,,---,0.00,VWS V14.01,2013-10-27 17:23:00,
2013-10-27 13:25:00,55.4,36.1,30.01,NW,315,1.0,13.0,48,0.00,,---,0.00,VWS V14.01,2013-10-27 17:25:00,
2013-10-27 13:28:00,55.7,37.4,30.01,SW,232,4.0,9.0,50,0.00,,---,0.00,VWS V14.01,2013-10-27 17:28:00,
2013-10-27 13:30:00,55.7,37.4,30.01,WSW,243,5.0,9.0,50,0.00,,---,0.00,VWS V14.01,2013-10-27 17:30:00,
2013-10-27 13:33:00,56.0,37.1,30.01,WSW,242,4.0,5.0,49,0.00,,---,0.00,VWS V14.01,2013-10-27 17:33:00,
2013-10-27 13:35:00,56.0,37.1,30.01,WSW,257,3.0,5.0,49,0.00,,---,0.00,VWS V14.01,2013-10-27 17:35:00,
2013-10-27 13:38:00,56.2,36.8,30.01,NW,316,1.0,5.0,48,0.00,,---,0.00,VWS V14.01,2013-10-27 17:38:00,
2013-10-27 13:40:00,56.2,37.8,30.01,WSW,238,5.0,5.0,50,0.00,,---,0.00,VWS V14.01,2013-10-27 17:40:00,
2013-10-27 13:43:00,56.5,37.1,30.01,NNW,327,3.0,7.0,48,0.00,,---,0.00,VWS V14.01,2013-10-27 17:43:00,
2013-10-27 13:45:00,56.5,37.1,30.01,WSW,255,5.0,7.0,48,0.00,,---,0.00,VWS V14.01,2013-10-27 17:45:00,
2013-10-27 13:48:00,56.6,36.6,30.01,NE,51,2.0,5.0,47,0.00,,---,0.00,VWS V14.01,2013-10-27 17:48:00,
2013-10-27 13:50:00,54.5,35.2,30.03,NW,309,5.0,16.0,48,0.00,,---,0.00,VWS V14.01,2013-10-27 17:50:00,
2013-10-27 13:53:00,56.7,36.2,30.00,WNW,296,1.0,3.0,46,0.00,,---,0.00,VWS V14.01,2013-10-27 17:53:00,
2013-10-27 13:55:00,54.4,34.6,30.03,NW,311,1.0,8.0,47,0.00,,---,0.00,VWS V14.01,2013-10-27 17:55:00,
2013-10-27 13:58:00,56.7,35.6,30.00,NW,310,0.0,2.0,45,0.00,,---,0.00,VWS V14.01,2013-10-27 17:58:00,
2013-10-27 14:00:00,56.7,36.2,30.00,North,5,2.0,5.0,46,0.00,,---,0.00,VWS V14.01,2013-10-27 18:00:00,
2013-10-27 14:03:00,56.9,38.0,30.00,NW,306,1.0,6.0,49,0.00,,---,0.00,VWS V14.01,2013-10-27 18:03:00,
2013-10-27 14:05:00,56.9,35.2,30.00,WSW,243,3.0,6.0,44,0.00,,---,0.00,VWS V14.01,2013-10-27 18:05:00,
2013-10-27 14:08:00,56.9,36.3,30.00,WNW,296,1.0,5.0,46,0.00,,---,0.00,VWS V14.01,2013-10-27 18:08:00,
2013-10-27 14:10:00,56.9,35.2,30.00,North,360,2.0,5.0,44,0.00,,---,0.00,VWS V14.01,2013-10-27 18:10:00,
2013-10-27 14:13:00,56.9,35.2,30.00,WNW,284,4.0,5.0,44,0.00,,---,0.00,VWS V14.01,2013-10-27 18:13:00,
2013-10-27 14:15:00,56.9,36.3,30.00,WNW,290,3.0,9.0,46,0.00,,---,0.00,VWS V14.01,2013-10-27 18:15:00,
2013-10-27 14:18:00,56.9,35.2,30.00,NNE,30,1.0,7.0,44,0.00,,---,0.00,VWS V14.01,2013-10-27 18:18:00,
2013-10-27 14:20:00,56.9,34.7,30.00,WSW,251,2.0,7.0,43,0.00,,---,0.00,VWS V14.01,2013-10-27 18:20:00,
2013-10-27 14:23:00,56.9,35.8,30.00,NE,37,0.0,6.0,45,0.00,,---,0.00,VWS V14.01,2013-10-27 18:23:00,
2013-10-27 14:25:00,56.9,34.7,30.00,South,170,0.0,6.0,43,0.00,,---,0.00,VWS V14.01,2013-10-27 18:25:00,
2013-10-27 14:28:00,56.9,36.9,30.00,SW,219,5.0,6.0,47,0.00,,---,0.00,VWS V14.01,2013-10-27 18:28:00,
2013-10-27 14:30:00,57.0,36.4,30.00,WSW,257,4.0,6.0,46,0.00,,---,0.00,VWS V14.01,2013-10-27 18:30:00,
2013-10-27 14:33:00,57.0,34.8,30.00,WNW,301,3.0,4.0,43,0.00,,---,0.00,VWS V14.01,2013-10-27 18:33:00,
2013-10-27 14:35:00,57.0,34.8,30.00,West,259,1.0,4.0,43,0.00,,---,0.00,VWS V14.01,2013-10-27 18:35:00,
2013-10-27 14:38:00,57.2,34.9,30.00,WSW,246,4.0,10.0,43,0.00,,---,0.00,VWS V14.01,2013-10-27 18:38:00,
2013-10-27 14:40:00,57.2,36.6,30.00,NW,304,5.0,10.0,46,0.00,,---,0.00,VWS V14.01,2013-10-27 18:40:00,
2013-10-27 14:43:00,57.3,35.0,29.99,West,277,3.0,8.0,43,0.00,,---,0.00,VWS V14.01,2013-10-27 18:43:00,
2013-10-27 14:45:00,56.5,37.1,30.01,WSW,255,5.0,7.0,48,0.00,,---,0.00,VWS V14.01,2013-10-27 18:45:00,
2013-10-27 14:48:00,57.3,35.0,30.00,West,261,3.0,9.0,43,0.00,,---,0.00,VWS V14.01,2013-10-27 18:48:00,
2013-10-27 14:50:00,57.3,36.7,30.00,WSW,257,5.0,9.0,46,0.00,,---,0.00,VWS V14.01,2013-10-27 18:50:00,
2013-10-27 14:53:00,57.3,33.8,30.00,WSW,252,1.0,6.0,41,0.00,,---,0.00,VWS V14.01,2013-10-27 18:53:00,
2013-10-27 14:55:00,57.3,35.0,30.00,WNW,296,3.0,6.0,43,0.00,,---,0.00,VWS V14.01,2013-10-27 18:55:00,
2013-10-27 14:58:00,57.3,36.2,30.00,WNW,288,1.0,5.0,45,0.00,,---,0.00,VWS V14.01,2013-10-27 18:58:00,
2013-10-27 15:00:00,56.7,36.2,30.00,North,5,2.0,5.0,46,0.00,,---,0.00,VWS V14.01,2013-10-27 19:00:00,
2013-10-27 15:03:00,57.3,37.3,30.00,East,83,1.0,2.0,47,0.00,,---,0.00,VWS V14.01,2013-10-27 19:03:00,
2013-10-27 15:05:00,56.9,35.2,30.00,WSW,243,3.0,6.0,44,0.00,,---,0.00,VWS V14.01,2013-10-27 19:05:00,
2013-10-27 15:08:00,57.3,35.0,30.00,WSW,240,5.0,7.0,43,0.00,,---,0.00,VWS V14.01,2013-10-27 19:08:00,
2013-10-27 15:10:00,57.3,35.6,30.00,WSW,243,3.0,7.0,44,0.00,,---,0.00,VWS V14.01,2013-10-27 19:10:00,
2013-10-27 15:13:00,57.5,36.3,30.00,WNW,288,2.0,6.0,45,0.00,,---,0.00,VWS V14.01,2013-10-27 19:13:00,
2013-10-27 15:15:00,56.9,36.3,30.00,WNW,290,3.0,9.0,46,0.00,,---,0.00,VWS V14.01,2013-10-27 19:15:00,
2013-10-27 15:18:00,57.5,35.8,30.00,SW,228,0.0,7.0,44,0.00,,---,0.00,VWS V14.01,2013-10-27 19:18:00,
2013-10-27 15:20:00,57.6,37.0,30.00,South,175,0.0,7.0,46,0.00,,---,0.00,VWS V14.01,2013-10-27 19:20:00,
2013-10-27 15:23:00,57.6,35.9,30.00,WNW,288,3.0,9.0,44,0.00,,---,0.00,VWS V14.01,2013-10-27 19:23:00,
2013-10-27 15:25:00,56.9,34.7,30.00,South,170,0.0,6.0,43,0.00,,---,0.00,VWS V14.01,2013-10-27 19:25:00,
2013-10-27 15:28:00,57.6,35.3,30.00,West,275,3.0,3.0,43,0.00,,---,0.00,VWS V14.01,2013-10-27 19:28:00,
2013-10-27 15:30:00,57.6,35.9,30.00,WNW,282,0.0,5.0,44,0.00,,---,0.00,VWS V14.01,2013-10-27 19:30:00,
2013-10-27 15:33:00,57.6,35.3,30.00,West,270,10.0,10.0,43,0.00,,---,0.00,VWS V14.01,2013-10-27 19:33:00,
2013-10-27 15:35:00,57.6,34.1,30.00,WSW,254,9.0,11.0,41,0.00,,---,0.00,VWS V14.01,2013-10-27 19:35:00,
2013-10-27 15:38:00,57.8,34.3,30.00,West,276,5.0,9.0,41,0.00,,---,0.00,VWS V14.01,2013-10-27 19:38:00,
2013-10-27 15:40:00,57.2,36.6,30.00,NW,304,5.0,10.0,46,0.00,,---,0.00,VWS V14.01,2013-10-27 19:40:00,
2013-10-27 15:43:00,57.8,34.3,30.00,WSW,246,9.0,9.0,41,0.00,,---,0.00,VWS V14.01,2013-10-27 19:43:00,
2013-10-27 15:45:00,57.6,34.1,30.00,WSW,258,6.0,9.0,41,0.00,,---,0.00,VWS V14.01,2013-10-27 19:45:00,
2013-10-27 15:48:00,57.6,34.7,30.00,West,279,7.0,7.0,42,0.00,,---,0.00,VWS V14.01,2013-10-27 19:48:00,
2013-10-27 15:50:00,57.6,34.7,30.00,WNW,295,2.0,7.0,42,0.00,,---,0.00,VWS V14.01,2013-10-27 19:50:00,
2013-10-27 15:53:00,57.6,34.1,30.00,NNW,338,2.0,6.0,41,0.00,,---,0.00,VWS V14.01,2013-10-27 19:53:00,
2013-10-27 15:55:00,57.8,34.9,30.00,NNW,327,2.0,6.0,42,0.00,,---,0.00,VWS V14.01,2013-10-27 19:55:00,
2013-10-27 15:58:00,57.8,33.0,30.00,NNW,341,3.0,4.0,39,0.00,,---,0.00,VWS V14.01,2013-10-27 19:58:00,
2013-10-27 16:00:00,57.3,35.0,30.00,WNW,291,1.0,5.0,43,0.00,,---,0.00,VWS V14.01,2013-10-27 20:00:00,
2013-10-27 16:03:00,57.8,34.3,30.00,NW,305,3.0,9.0,41,0.00,,---,0.00,VWS V14.01,2013-10-27 20:03:00,
2013-10-27 16:05:00,57.8,33.7,30.00,West,263,12.0,12.0,40,0.00,,---,0.00,VWS V14.01,2013-10-27 20:05:00,
2013-10-27 16:08:00,57.8,34.9,30.00,West,276,5.0,12.0,42,0.00,,---,0.00,VWS V14.01,2013-10-27 20:08:00,
2013-10-27 16:10:00,57.3,35.6,30.00,WSW,243,3.0,7.0,44,0.00,,---,0.00,VWS V14.01,2013-10-27 20:10:00,
2013-10-27 16:13:00,57.6,34.7,30.00,WSW,240,7.0,10.0,42,0.00,,---,0.00,VWS V14.01,2013-10-27 20:13:00,
2013-10-27 16:15:00,57.6,34.7,30.00,WSW,240,2.0,10.0,42,0.00,,---,0.00,VWS V14.01,2013-10-27 20:15:00,
2013-10-27 16:18:00,57.5,33.4,30.00,NW,304,1.0,12.0,40,0.00,,---,0.00,VWS V14.01,2013-10-27 20:18:00,
2013-10-27 16:20:00,57.6,37.0,30.00,South,175,0.0,7.0,46,0.00,,---,0.00,VWS V14.01,2013-10-27 20:20:00,
2013-10-27 16:23:00,57.5,34.6,30.00,NW,304,0.0,9.0,42,0.00,,---,0.00,VWS V14.01,2013-10-27 20:23:00,
2013-10-27 16:25:00,57.5,34.0,30.00,NW,304,1.0,9.0,41,0.00,,---,0.00,VWS V14.01,2013-10-27 20:25:00,
2013-10-27 16:28:00,57.5,35.2,30.00,WNW,294,1.0,5.0,43,0.00,,---,0.00,VWS V14.01,2013-10-27 20:28:00,
2013-10-27 16:30:00,57.5,35.2,30.00,NW,310,1.0,5.0,43,0.00,,---,0.00,VWS V14.01,2013-10-27 20:30:00,
2013-10-27 16:33:00,57.3,33.2,30.01,NW,318,3.0,5.0,40,0.00,,---,0.00,VWS V14.01,2013-10-27 20:33:00,
2013-10-27 16:35:00,57.6,34.1,30.00,WSW,254,9.0,11.0,41,0.00,,---,0.00,VWS V14.01,2013-10-27 20:35:00,
2013-10-27 16:38:00,57.3,33.2,30.01,NNE,12,1.0,2.0,40,0.00,,---,0.00,VWS V14.01,2013-10-27 20:38:00,
2013-10-27 16:40:00,57.8,35.5,30.00,SSW,212,2.0,9.0,43,0.00,,---,0.00,VWS V14.01,2013-10-27 20:40:00,
2013-10-27 16:43:00,57.2,33.1,30.01,North,11,0.0,3.0,40,0.00,,---,0.00,VWS V14.01,2013-10-27 20:43:00,
2013-10-27 16:45:00,57.2,33.7,30.01,NNE,12,2.0,3.0,41,0.00,,---,0.00,VWS V14.01,2013-10-27 20:45:00,
2013-10-27 16:48:00,57.2,33.7,30.01,NNW,347,2.0,3.0,41,0.00,,---,0.00,VWS V14.01,2013-10-27 20:48:00,
2013-10-27 16:50:00,57.6,34.7,30.00,WNW,295,2.0,7.0,42,0.00,,---,0.00,VWS V14.01,2013-10-27 20:50:00,
2013-10-27 16:53:00,57.0,34.2,30.01,NW,315,1.0,3.0,42,0.00,,---,0.00,VWS V14.01,2013-10-27 20:53:00,
2013-10-27 16:55:00,57.0,34.2,30.01,NW,315,0.0,3.0,42,0.00,,---,0.00,VWS V14.01,2013-10-27 20:55:00,
2013-10-27 16:58:00,56.9,33.5,30.01,NW,323,0.0,2.0,41,0.00,,---,0.00,VWS V14.01,2013-10-27 20:58:00,
2013-10-27 17:00:00,56.9,33.5,30.01,ESE,105,0.0,2.0,41,0.00,,---,0.00,VWS V14.01,2013-10-27 21:00:00,
2013-10-27 17:03:00,56.7,33.9,30.01,ESE,104,0.0,2.0,42,0.00,,---,0.00,VWS V14.01,2013-10-27 21:03:00,
2013-10-27 17:05:00,57.8,33.7,30.00,West,263,12.0,12.0,40,0.00,,---,0.00,VWS V14.01,2013-10-27 21:05:00,
2013-10-27 17:08:00,56.6,33.8,30.01,SSE,156,0.0,1.0,42,0.00,,---,0.00,VWS V14.01,2013-10-27 21:08:00,
2013-10-27 17:10:00,56.6,34.4,30.01,WNW,301,3.0,3.0,43,0.00,,---,0.00,VWS V14.01,2013-10-27 21:10:00,
2013-10-27 17:13:00,56.5,34.3,30.01,North,5,1.0,6.0,43,0.00,,---,0.00,VWS V14.01,2013-10-27 21:13:00,
2013-10-27 17:15:00,56.5,34.3,30.01,North,5,1.0,6.0,43,0.00,,---,0.00,VWS V14.01,2013-10-27 21:15:00,
2013-10-27 17:18:00,56.5,33.7,30.01,NNW,336,0.0,2.0,42,0.00,,---,0.00,VWS V14.01,2013-10-27 21:18:00,
2013-10-27 17:20:00,57.5,34.6,30.00,West,265,6.0,12.0,42,0.00,,---,0.00,VWS V14.01,2013-10-27 21:20:00,
2013-10-27 17:23:00,56.3,33.5,30.01,NW,317,0.0,2.0,42,0.00,,---,0.00,VWS V14.01,2013-10-27 21:23:00,
2013-10-27 17:25:00,56.2,33.4,30.01,NW,317,1.0,2.0,42,0.00,,---,0.00,VWS V14.01,2013-10-27 21:25:00,
2013-10-27 17:28:00,56.2,34.0,30.02,NW,306,0.0,3.0,43,0.00,,---,0.00,VWS V14.01,2013-10-27 21:28:00,
2013-10-27 17:30:00,56.0,34.4,30.01,NW,306,0.0,3.0,44,0.00,,---,0.00,VWS V14.01,2013-10-27 21:30:00,
2013-10-27 17:33:00,55.9,34.9,30.02,East,96,1.0,2.0,45,0.00,,---,0.00,VWS V14.01,2013-10-27 21:33:00,
2013-10-27 17:35:00,55.9,34.9,30.02,East,96,1.0,2.0,45,0.00,,---,0.00,VWS V14.01,2013-10-27 21:35:00,
2013-10-27 17:38:00,55.7,33.6,30.02,East,96,0.0,1.0,43,0.00,,---,0.00,VWS V14.01,2013-10-27 21:38:00,
2013-10-27 17:40:00,55.6,33.5,30.02,NE,44,1.0,1.0,43,0.00,,---,0.00,VWS V14.01,2013-10-27 21:40:00,
2013-10-27 17:43:00,55.4,33.3,30.02,NE,44,0.0,1.0,43,0.00,,---,0.00,VWS V14.01,2013-10-27 21:43:00,
2013-10-27 17:45:00,55.4,33.3,30.02,NE,44,0.0,1.0,43,0.00,,---,0.00,VWS V14.01,2013-10-27 21:45:00,
2013-10-27 17:48:00,55.3,34.3,30.02,NE,44,0.0,0.0,45,0.00,,---,0.00,VWS V14.01,2013-10-27 21:48:00,
2013-10-27 17:50:00,55.3,33.8,30.02,NE,44,0.0,1.0,44,0.00,,---,0.00,VWS V14.01,2013-10-27 21:50:00,
2013-10-27 17:53:00,55.1,34.7,30.02,NE,44,0.0,0.0,46,0.00,,---,0.00,VWS V14.01,2013-10-27 21:53:00,
2013-10-27 17:55:00,55.0,36.2,30.02,NE,44,0.0,0.0,49,0.00,,---,0.00,VWS V14.01,2013-10-27 21:55:00,
2013-10-27 17:58:00,54.8,35.5,30.02,NE,44,0.0,0.0,48,0.00,,---,0.00,VWS V14.01,2013-10-27 21:58:00,
2013-10-27 18:00:00,54.7,35.4,30.02,NE,44,0.0,0.0,48,0.00,,---,0.00,VWS V14.01,2013-10-27 22:00:00,
2013-10-27 18:03:00,54.4,35.1,30.02,NE,44,0.0,0.0,48,0.00,,---,0.00,VWS V14.01,2013-10-27 22:03:00,
2013-10-27 18:05:00,56.7,33.9,30.01,ESE,104,0.0,2.0,42,0.00,,---,0.00,VWS V14.01,2013-10-27 22:05:00,
2013-10-27 18:08:00,54.1,36.4,30.03,NE,44,0.0,0.0,51,0.00,,---,0.00,VWS V14.01,2013-10-27 22:08:00,
2013-10-27 18:10:00,53.9,35.2,30.03,NE,44,0.0,0.0,49,0.00,,---,0.00,VWS V14.01,2013-10-27 22:10:00,
2013-10-27 18:13:00,53.6,35.4,30.03,NE,44,0.0,0.0,50,0.00,,---,0.00,VWS V14.01,2013-10-27 22:13:00,
2013-10-27 18:15:00,53.6,35.4,30.03,NE,44,0.0,0.0,50,0.00,,---,0.00,VWS V14.01,2013-10-27 22:15:00,
2013-10-27 18:18:00,53.2,36.5,30.03,NE,44,0.0,0.0,53,0.00,,---,0.00,VWS V14.01,2013-10-27 22:18:00,
2013-10-27 18:20:00,53.2,36.5,30.03,NE,44,0.0,0.0,53,0.00,,---,0.00,VWS V14.01,2013-10-27 22:20:00,
2013-10-27 18:23:00,52.8,35.2,30.03,NE,44,0.0,0.0,51,0.00,,---,0.00,VWS V14.01,2013-10-27 22:23:00,
2013-10-27 18:25:00,52.8,36.2,30.03,NE,44,0.0,0.0,53,0.00,,---,0.00,VWS V14.01,2013-10-27 22:25:00,
2013-10-27 18:28:00,52.3,36.2,30.03,NE,44,0.0,0.0,54,0.00,,---,0.00,VWS V14.01,2013-10-27 22:28:00,
2013-10-27 18:30:00,52.3,35.7,30.03,NE,44,0.0,0.0,53,0.00,,---,0.00,VWS V14.01,2013-10-27 22:30:00,
2013-10-27 18:33:00,51.9,35.8,30.03,NE,44,0.0,0.0,54,0.00,,---,0.00,VWS V14.01,2013-10-27 22:33:00,
2013-10-27 18:35:00,51.7,35.6,30.03,NE,44,0.0,0.0,54,0.00,,---,0.00,VWS V14.01,2013-10-27 22:35:00,
2013-10-27 18:38:00,51.4,36.7,30.04,NE,44,0.0,0.0,57,0.00,,---,0.00,VWS V14.01,2013-10-27 22:38:00,
2013-10-27 18:40:00,51.3,36.6,30.04,NE,44,0.0,0.0,57,0.00,,---,0.00,VWS V14.01,2013-10-27 22:40:00,
2013-10-27 18:43:00,51.0,36.3,30.04,NE,44,0.0,0.0,57,0.00,,---,0.00,VWS V14.01,2013-10-27 22:43:00,
2013-10-27 18:45:00,50.8,35.7,30.04,NE,44,0.0,0.0,56,0.00,,---,0.00,VWS V14.01,2013-10-27 22:45:00,
2013-10-27 18:48:00,50.5,35.8,30.04,NE,44,0.0,0.0,57,0.00,,---,0.00,VWS V14.01,2013-10-27 22:48:00,
2013-10-27 18:50:00,50.4,35.8,30.04,NE,44,0.0,0.0,57,0.00,,---,0.00,VWS V14.01,2013-10-27 22:50:00,
2013-10-27 18:54:00,49.9,36.6,30.05,NE,44,0.0,0.0,60,0.00,,---,0.00,VWS V14.01,2013-10-27 22:54:00,
2013-10-27 18:55:00,49.9,36.6,30.05,NE,44,0.0,0.0,60,0.00,,---,0.00,VWS V14.01,2013-10-27 22:55:00,
2013-10-27 18:59:00,49.5,36.6,30.05,NE,44,0.0,0.0,61,0.00,,---,0.00,VWS V14.01,2013-10-27 22:59:00,
2013-10-27 19:00:00,49.4,36.5,30.05,NE,44,0.0,0.0,61,0.00,,---,0.00,VWS V14.01,2013-10-27 23:00:00,
2013-10-27 19:04:00,48.9,36.9,30.05,NE,44,0.0,0.0,63,0.00,,---,0.00,VWS V14.01,2013-10-27 23:04:00,
2013-10-27 19:05:00,48.9,36.9,30.05,NE,44,0.0,0.0,63,0.00,,---,0.00,VWS V14.01,2013-10-27 23:05:00,
2013-10-27 19:09:00,48.5,36.5,30.06,NE,44,0.0,0.0,63,0.00,,---,0.00,VWS V14.01,2013-10-27 23:09:00,
2013-10-27 19:10:00,48.5,36.5,30.06,NE,44,0.0,0.0,63,0.00,,---,0.00,VWS V14.01,2013-10-27 23:10:00,
2013-10-27 19:14:00,48.0,36.4,30.06,NE,44,0.0,0.0,64,0.00,,---,0.00,VWS V14.01,2013-10-27 23:14:00,
2013-10-27 19:15:00,47.9,36.3,30.06,NE,44,0.0,0.0,64,0.00,,---,0.00,VWS V14.01,2013-10-27 23:15:00,
2013-10-27 19:19:00,47.6,35.6,30.06,NE,44,0.0,0.0,63,0.00,,---,0.00,VWS V14.01,2013-10-27 23:19:00,
2013-10-27 19:20:00,47.6,35.6,30.06,NE,44,0.0,0.0,63,0.00,,---,0.00,VWS V14.01,2013-10-27 23:20:00,
2013-10-27 19:24:00,47.3,35.4,30.07,NE,44,0.0,0.0,63,0.00,,---,0.00,VWS V14.01,2013-10-27 23:24:00,
2013-10-27 19:25:00,47.1,35.2,30.07,NE,44,0.0,0.0,63,0.00,,---,0.00,VWS V14.01,2013-10-27 23:25:00,
2013-10-27 19:29:00,46.8,35.3,30.07,NE,44,0.0,0.0,64,0.00,,---,0.00,VWS V14.01,2013-10-27 23:29:00,
2013-10-27 19:30:00,46.8,35.3,30.07,NE,44,0.0,0.0,64,0.00,,---,0.00,VWS V14.01,2013-10-27 23:30:00,
2013-10-27 19:34:00,46.5,35.4,30.07,NE,44,0.0,0.0,65,0.00,,---,0.00,VWS V14.01,2013-10-27 23:34:00,
2013-10-27 19:35:00,46.5,35.8,30.07,NE,44,0.0,0.0,66,0.00,,---,0.00,VWS V14.01,2013-10-27 23:35:00,
2013-10-27 19:39:00,46.2,35.9,30.07,NE,44,0.0,0.0,67,0.00,,---,0.00,VWS V14.01,2013-10-27 23:39:00,
2013-10-27 19:40:00,46.1,36.1,30.07,NE,44,0.0,0.0,68,0.00,,---,0.00,VWS V14.01,2013-10-27 23:40:00,
2013-10-27 19:44:00,45.8,36.6,30.08,NE,44,0.0,0.0,70,0.00,,---,0.00,VWS V14.01,2013-10-27 23:44:00,
2013-10-27 19:45:00,45.8,36.6,30.08,NE,44,0.0,0.0,70,0.00,,---,0.00,VWS V14.01,2013-10-27 23:45:00,
2013-10-27 19:49:00,45.4,36.9,30.08,NE,44,0.0,0.0,72,0.00,,---,0.00,VWS V14.01,2013-10-27 23:49:00,
2013-10-27 19:50:00,45.4,36.9,30.08,NE,44,0.0,0.0,72,0.00,,---,0.00,VWS V14.01,2013-10-27 23:50:00,
2013-10-27 19:54:00,44.9,36.8,30.08,NE,44,0.0,0.0,73,0.00,,---,0.00,VWS V14.01,2013-10-27 23:54:00,
2013-10-27 19:55:00,44.8,36.7,30.08,NE,44,0.0,0.0,73,0.00,,---,0.00,VWS V14.01,2013-10-27 23:55:00,
2013-10-27 19:59:00,44.5,36.7,30.08,NE,44,0.0,0.0,74,0.00,,---,0.00,VWS V14.01,2013-10-27 23:59:00,
2013-10-27 20:00:00,44.5,36.7,30.08,NE,44,0.0,0.0,74,0.00,,---,0.00,VWS V14.01,2013-10-28 00:00:00,
2013-10-27 20:04:00,44.2,36.5,30.08,NE,44,0.0,0.0,74,0.00,,---,0.00,VWS V14.01,2013-10-28 00:04:00,
2013-10-27 20:05:00,44.2,36.5,30.08,NE,44,0.0,0.0,74,0.00,,---,0.00,VWS V14.01,2013-10-28 00:05:00,
2013-10-27 20:09:00,43.9,35.8,30.08,NE,44,0.0,0.0,73,0.00,,---,0.00,VWS V14.01,2013-10-28 00:09:00,
2013-10-27 20:10:00,43.9,35.8,30.08,NE,44,0.0,0.0,73,0.00,,---,0.00,VWS V14.01,2013-10-28 00:10:00,
2013-10-27 20:14:00,43.8,35.7,30.08,NE,44,0.0,0.0,73,0.00,,---,0.00,VWS V14.01,2013-10-28 00:14:00,
2013-10-27 20:15:00,43.8,36.1,30.08,NE,44,0.0,0.0,74,0.00,,---,0.00,VWS V14.01,2013-10-28 00:15:00,
2013-10-27 20:19:00,43.5,35.8,30.09,NE,44,0.0,1.0,74,0.00,,---,0.00,VWS V14.01,2013-10-28 00:19:00,
2013-10-27 20:20:00,43.5,35.8,30.09,NE,44,0.0,1.0,74,0.00,,---,0.00,VWS V14.01,2013-10-28 00:20:00,
2013-10-27 20:24:00,43.3,35.2,30.09,NE,44,0.0,0.0,73,0.00,,---,0.00,VWS V14.01,2013-10-28 00:24:00,
2013-10-27 20:25:00,43.3,35.2,30.09,NE,44,0.0,0.0,73,0.00,,---,0.00,VWS V14.01,2013-10-28 00:25:00,
2013-10-27 20:29:00,43.2,35.5,30.09,NE,44,0.0,0.0,74,0.00,,---,0.00,VWS V14.01,2013-10-28 00:29:00,
2013-10-27 20:30:00,43.1,35.7,30.09,NE,44,0.0,0.0,75,0.00,,---,0.00,VWS V14.01,2013-10-28 00:30:00,
2013-10-27 20:34:00,42.9,35.2,30.09,NE,44,0.0,0.0,74,0.00,,---,0.00,VWS V14.01,2013-10-28 00:34:00,
2013-10-27 20:35:00,42.9,35.2,30.09,NE,44,0.0,0.0,74,0.00,,---,0.00,VWS V14.01,2013-10-28 00:35:00,
2013-10-27 20:39:00,42.8,35.1,30.10,NE,44,0.0,0.0,74,0.00,,---,0.00,VWS V14.01,2013-10-28 00:39:00,
2013-10-27 20:40:00,42.8,35.1,30.10,NE,44,0.0,0.0,74,0.00,,---,0.00,VWS V14.01,2013-10-28 00:40:00,
2013-10-27 20:44:00,42.6,35.2,30.10,NE,44,0.0,0.0,75,0.00,,---,0.00,VWS V14.01,2013-10-28 00:44:00,
2013-10-27 20:45:00,42.6,35.2,30.10,NE,44,0.0,0.0,75,0.00,,---,0.00,VWS V14.01,2013-10-28 00:45:00,
2013-10-27 20:49:00,42.5,35.2,30.09,NE,44,0.0,0.0,75,0.00,,---,0.00,VWS V14.01,2013-10-28 00:49:00,
2013-10-27 20:50:00,42.3,35.0,30.09,NE,44,0.0,0.0,75,0.00,,---,0.00,VWS V14.01,2013-10-28 00:50:00,
2013-10-27 20:54:00,42.2,35.2,30.10,NE,44,0.0,0.0,76,0.00,,---,0.00,VWS V14.01,2013-10-28 00:54:00,
2013-10-27 20:55:00,42.2,35.2,30.10,NE,44,0.0,0.0,76,0.00,,---,0.00,VWS V14.01,2013-10-28 00:55:00,
2013-10-27 20:59:00,42.1,35.4,30.10,NE,44,0.0,0.0,77,0.00,,---,0.00,VWS V14.01,2013-10-28 00:59:00,
2013-10-27 21:00:00,42.1,35.4,30.10,NE,44,0.0,0.0,77,0.00,,---,0.00,VWS V14.01,2013-10-28 01:00:00,
2013-10-27 21:04:00,41.9,35.5,30.09,NE,44,0.0,0.0,78,0.00,,---,0.00,VWS V14.01,2013-10-28 01:04:00,
2013-10-27 21:05:00,41.8,35.8,30.09,NE,44,0.0,0.0,79,0.00,,---,0.00,VWS V14.01,2013-10-28 01:05:00,
2013-10-27 21:09:00,41.6,35.6,30.09,NE,44,0.0,0.0,79,0.00,,---,0.00,VWS V14.01,2013-10-28 01:09:00,
2013-10-27 21:10:00,41.6,35.6,30.09,NE,44,0.0,0.0,79,0.00,,---,0.00,VWS V14.01,2013-10-28 01:10:00,
2013-10-27 21:14:00,41.5,35.5,30.10,NE,44,0.0,0.0,79,0.00,,---,0.00,VWS V14.01,2013-10-28 01:14:00,
2013-10-27 21:15:00,41.5,35.5,30.10,NE,44,0.0,0.0,79,0.00,,---,0.00,VWS V14.01,2013-10-28 01:15:00,
2013-10-27 21:19:00,41.3,35.3,30.10,NE,44,0.0,0.0,79,0.00,,---,0.00,VWS V14.01,2013-10-28 01:19:00,
2013-10-27 21:20:00,41.2,35.2,30.10,NE,44,0.0,0.0,79,0.00,,---,0.00,VWS V14.01,2013-10-28 01:20:00,
2013-10-27 21:24:00,41.1,35.1,30.10,NE,44,0.0,0.0,79,0.00,,---,0.00,VWS V14.01,2013-10-28 01:24:00,
2013-10-27 21:25:00,41.1,35.1,30.10,NE,44,0.0,0.0,79,0.00,,---,0.00,VWS V14.01,2013-10-28 01:25:00,
2013-10-27 21:29:00,40.9,34.9,30.11,NE,44,0.0,0.0,79,0.00,,---,0.00,VWS V14.01,2013-10-28 01:29:00,
2013-10-27 21:30:00,40.9,34.9,30.11,NE,44,0.0,0.0,79,0.00,,---,0.00,VWS V14.01,2013-10-28 01:30:00,
2013-10-27 21:34:00,40.8,34.8,30.11,NE,44,0.0,0.0,79,0.00,,---,0.00,VWS V14.01,2013-10-28 01:34:00,
2013-10-27 21:35:00,40.8,34.8,30.11,NE,44,0.0,0.0,79,0.00,,---,0.00,VWS V14.01,2013-10-28 01:35:00,
2013-10-27 21:39:00,40.6,34.6,30.11,NE,44,0.0,0.0,79,0.00,,---,0.00,VWS V14.01,2013-10-28 01:39:00,
2013-10-27 21:40:00,40.6,34.6,30.11,NE,44,0.0,0.0,79,0.00,,---,0.00,VWS V14.01,2013-10-28 01:40:00,
2013-10-27 21:44:00,40.5,34.5,30.11,NE,44,0.0,0.0,79,0.00,,---,0.00,VWS V14.01,2013-10-28 01:44:00,
2013-10-27 21:45:00,40.5,34.5,30.11,NE,44,0.0,0.0,79,0.00,,---,0.00,VWS V14.01,2013-10-28 01:45:00,
2013-10-27 21:49:00,40.3,34.6,30.11,NE,44,0.0,0.0,80,0.00,,---,0.00,VWS V14.01,2013-10-28 01:49:00,
2013-10-27 21:50:00,40.3,34.6,30.11,NE,44,0.0,0.0,80,0.00,,---,0.00,VWS V14.01,2013-10-28 01:50:00,
2013-10-27 21:54:00,40.2,34.5,30.11,NE,44,0.0,0.0,80,0.00,,---,0.00,VWS V14.01,2013-10-28 01:54:00,
2013-10-27 21:55:00,40.2,34.5,30.11,NE,44,0.0,0.0,80,0.00,,---,0.00,VWS V14.01,2013-10-28 01:55:00,
2013-10-27 21:59:00,40.1,34.8,30.12,NE,44,0.0,0.0,81,0.00,,---,0.00,VWS V14.01,2013-10-28 01:59:00,
2013-10-27 22:00:00,40.1,34.8,30.12,NE,44,0.0,0.0,81,0.00,,---,0.00,VWS V14.01,2013-10-28 02:00:00,
2013-10-27 22:04:00,39.9,34.5,30.12,NE,44,0.0,0.0,81,0.00,,---,0.00,VWS V14.01,2013-10-28 02:04:00,
2013-10-27 22:05:00,39.9,34.5,30.12,NE,44,0.0,0.0,81,0.00,,---,0.00,VWS V14.01,2013-10-28 02:05:00,
2013-10-27 22:09:00,39.5,34.5,30.12,NE,44,0.0,0.0,82,0.00,,---,0.00,VWS V14.01,2013-10-28 02:09:00,
2013-10-27 22:10:00,39.5,34.5,30.12,NE,44,0.0,0.0,82,0.00,,---,0.00,VWS V14.01,2013-10-28 02:10:00,
2013-10-27 22:14:00,39.3,34.3,30.12,NE,44,0.0,0.0,82,0.00,,---,0.00,VWS V14.01,2013-10-28 02:14:00,
2013-10-27 22:15:00,39.3,34.6,30.12,NE,44,0.0,0.0,83,0.00,,---,0.00,VWS V14.01,2013-10-28 02:15:00,
2013-10-27 22:19:00,39.2,34.8,30.12,NE,44,0.0,0.0,84,0.00,,---,0.00,VWS V14.01,2013-10-28 02:19:00,
2013-10-27 22:20:00,39.2,34.8,30.12,NE,44,0.0,0.0,84,0.00,,---,0.00,VWS V14.01,2013-10-28 02:20:00,
2013-10-27 22:24:00,39.1,34.7,30.12,NE,44,0.0,0.0,84,0.00,,---,0.00,VWS V14.01,2013-10-28 02:24:00,
2013-10-27 22:25:00,39.1,34.7,30.12,NE,44,0.0,0.0,84,0.00,,---,0.00,VWS V14.01,2013-10-28 02:25:00,
2013-10-27 22:29:00,38.9,34.5,30.12,NE,44,0.0,0.0,84,0.00,,---,0.00,VWS V14.01,2013-10-28 02:29:00,
2013-10-27 22:30:00,38.9,34.5,30.12,NE,44,0.0,0.0,84,0.00,,---,0.00,VWS V14.01,2013-10-28 02:30:00,
2013-10-27 22:34:00,38.9,34.5,30.12,NE,44,0.0,0.0,84,0.00,,---,0.00,VWS V14.01,2013-10-28 02:34:00,
2013-10-27 22:35:00,38.9,34.5,30.12,NE,44,0.0,0.0,84,0.00,,---,0.00,VWS V14.01,2013-10-28 02:35:00,
2013-10-27 22:39:00,38.8,34.4,30.12,NE,44,0.0,0.0,84,0.00,,---,0.00,VWS V14.01,2013-10-28 02:39:00,
2013-10-27 22:40:00,38.8,34.4,30.12,NE,44,0.0,0.0,84,0.00,,---,0.00,VWS V14.01,2013-10-28 02:40:00,
2013-10-27 22:44:00,38.8,34.4,30.12,NE,44,0.0,0.0,84,0.00,,---,0.00,VWS V14.01,2013-10-28 02:44:00,
2013-10-27 22:45:00,38.6,34.2,30.12,NE,44,0.0,0.0,84,0.00,,---,0.00,VWS V14.01,2013-10-28 02:45:00,
2013-10-27 22:49:00,38.6,34.2,30.12,NE,44,0.0,0.0,84,0.00,,---,0.00,VWS V14.01,2013-10-28 02:49:00,
2013-10-27 22:50:00,38.6,34.2,30.12,NE,44,0.0,0.0,84,0.00,,---,0.00,VWS V14.01,2013-10-28 02:50:00,
2013-10-27 22:54:00,38.5,34.4,30.12,NE,44,0.0,0.0,85,0.00,,---,0.00,VWS V14.01,2013-10-28 02:54:00,
2013-10-27 22:55:00,38.5,34.4,30.12,NE,44,0.0,0.0,85,0.00,,---,0.00,VWS V14.01,2013-10-28 02:55:00,
2013-10-27 22:59:00,38.3,34.2,30.12,NE,44,0.0,0.0,85,0.00,,---,0.00,VWS V14.01,2013-10-28 02:59:00,
2013-10-27 23:00:00,38.3,34.2,30.12,NE,44,0.0,0.0,85,0.00,,---,0.00,VWS V14.01,2013-10-28 03:00:00,
2013-10-27 23:04:00,38.2,34.1,30.12,NE,44,0.0,0.0,85,0.00,,---,0.00,VWS V14.01,2013-10-28 03:04:00,
2013-10-27 23:05:00,38.2,34.1,30.12,NE,44,0.0,0.0,85,0.00,,---,0.00,VWS V14.01,2013-10-28 03:05:00,
2013-10-27 23:09:00,38.0,33.9,30.12,NE,44,0.0,0.0,85,0.00,,---,0.00,VWS V14.01,2013-10-28 03:09:00,
2013-10-27 23:10:00,38.0,33.9,30.12,NE,44,0.0,0.0,85,0.00,,---,0.00,VWS V14.01,2013-10-28 03:10:00,
2013-10-27 23:14:00,37.9,34.1,30.12,NE,44,0.0,0.0,86,0.00,,---,0.00,VWS V14.01,2013-10-28 03:14:00,
2013-10-27 23:15:00,37.9,34.1,30.12,NE,44,0.0,0.0,86,0.00,,---,0.00,VWS V14.01,2013-10-28 03:15:00,
2013-10-27 23:19:00,37.9,34.1,30.12,NE,44,0.0,0.0,86,0.00,,---,0.00,VWS V14.01,2013-10-28 03:19:00,
2013-10-27 23:20:00,37.9,34.1,30.12,NE,44,0.0,0.0,86,0.00,,---,0.00,VWS V14.01,2013-10-28 03:20:00,
2013-10-27 23:24:00,37.8,34.3,30.12,NE,44,0.0,0.0,87,0.00,,---,0.00,VWS V14.01,2013-10-28 03:24:00,
2013-10-27 23:25:00,37.8,34.3,30.12,NE,44,0.0,0.0,87,0.00,,---,0.00,VWS V14.01,2013-10-28 03:25:00,
2013-10-27 23:29:00,37.8,34.3,30.12,NE,44,0.0,0.0,87,0.00,,---,0.00,VWS V14.01,2013-10-28 03:29:00,
2013-10-27 23:30:00,37.8,34.3,30.12,NE,44,0.0,0.0,87,0.00,,---,0.00,VWS V14.01,2013-10-28 03:30:00,
2013-10-27 23:34:00,37.6,34.1,30.12,NE,44,0.0,0.0,87,0.00,,---,0.00,VWS V14.01,2013-10-28 03:34:00,
2013-10-27 23:35:00,37.6,34.1,30.12,NE,44,0.0,0.0,87,0.00,,---,0.00,VWS V14.01,2013-10-28 03:35:00,
2013-10-27 23:39:00,37.6,34.1,30.12,NE,44,0.0,0.0,87,0.00,,---,0.00,VWS V14.01,2013-10-28 03:39:00,
2013-10-27 23:40:00,37.6,34.1,30.12,NE,44,0.0,0.0,87,0.00,,---,0.00,VWS V14.01,2013-10-28 03:40:00,
2013-10-27 23:44:00,37.5,34.0,30.12,NE,44,0.0,0.0,87,0.00,,---,0.00,VWS V14.01,2013-10-28 03:44:00,
2013-10-27 23:45:00,37.5,34.0,30.12,NE,44,0.0,0.0,87,0.00,,---,0.00,VWS V14.01,2013-10-28 03:45:00,
2013-10-27 23:49:00,37.3,34.1,30.12,NE,44,0.0,0.0,88,0.00,,---,0.00,VWS V14.01,2013-10-28 03:49:00,
2013-10-27 23:50:00,37.3,34.1,30.12,NE,44,0.0,0.0,88,0.00,,---,0.00,VWS V14.01,2013-10-28 03:50:00,
2013-10-27 23:54:00,37.2,34.0,30.12,NE,44,0.0,0.0,88,0.00,,---,0.00,VWS V14.01,2013-10-28 03:54:00,
2013-10-27 23:55:00,37.2,34.0,30.12,NE,44,0.0,0.0,88,0.00,,---,0.00,VWS V14.01,2013-10-28 03:55:00,
2013-10-27 23:59:00,37.2,34.0,30.12,NE,44,0.0,0.0,88,0.00,,---,0.00,VWS V14.01,2013-10-28 03:59:00,